�N����,����,�~����,�C��,���x,�C��,����,���ϕ���,�ő�u�ԕ���,�ő厞����,���˗�,�I�_���x,�n�����x
"20/04/01","01:00",0.0,14.5,85.9,1010.2,60.3,0.5,2.8,117.6,0.00,12.2,13.0
"20/04/01","02:00",0.2,13.9,86.8,1009.3,319.3,0.5,1.9,335.1,0.00,11.8,12.9
"20/04/01","03:00",0.0,14.0,86.9,1008.8,125.2,0.8,2.5,120.3,0.00,11.9,12.9
"20/04/01","04:00",0.4,13.8,86.9,1007.8,329.9,1.0,2.6,107.1,0.00,11.7,12.7
"20/04/01","05:00",0.2,13.1,89.0,1007.6,300.5,1.5,1.9,328.5,0.00,11.4,12.9
"20/04/01","06:00",1.0,12.8,91.1,1006.7,271.8,1.1,1.6,321.7,0.00,11.4,12.6
"20/04/01","07:00",0.0,12.8,93.0,1006.4,331.5,1.0,2.7,317.1,0.00,11.7,12.7
"20/04/01","08:00",0.0,13.7,93.6,1005.7,8.7,0.6,2.8,116.5,0.00,12.7,12.7
"20/04/01","09:00",0.0,14.6,91.5,1005.2,127.3,1.0,4.1,117.6,0.09,13.3,12.9
"20/04/01","10:00",0.0,15.3,86.7,1004.1,75.9,1.5,4.4,122.2,0.25,13.1,13.0
"20/04/01","11:00",0.0,15.6,84.3,1003.1,90.2,1.0,3.5,120.6,0.19,13.0,13.2
"20/04/01","12:00",1.8,14.7,88.3,1001.2,46.6,0.8,3.9,125.1,0.13,12.8,13.3
"20/04/01","13:00",2.6,14.7,91.0,999.8,5.3,0.3,2.2,122.9,0.11,13.3,13.3
"20/04/01","14:00",3.0,14.6,92.2,997.4,9.0,0.5,1.9,5.8,0.10,13.4,13.4
"20/04/01","15:00",3.4,14.5,93.0,995.3,312.6,0.7,3.1,72.5,0.05,13.4,13.5
"20/04/01","16:00",4.0,14.3,93.8,994.4,270.9,1.1,2.0,298.7,0.01,13.4,13.3
"20/04/01","17:00",4.4,14.1,94.8,994.4,311.2,2.5,4.3,327.5,0.01,13.3,13.4
"20/04/01","18:00",6.4,12.9,94.9,994.6,323.1,4.1,8.5,330.2,0.00,12.1,13.2
"20/04/01","19:00",0.4,13.1,92.8,995.3,301.5,3.2,7.9,340.6,0.00,12.0,13.3
"20/04/01","20:00",1.0,12.9,88.4,997.2,317.7,5.6,15.4,330.7,0.00,11.1,13.0
"20/04/01","21:00",0.4,11.6,86.2,998.2,301.1,4.2,10.2,340.7,0.00,9.4,12.8
"20/04/01","22:00",0.0,11.3,81.3,1000.0,321.8,2.6,10.1,335.5,0.00,8.3,12.7
"20/04/01","23:00",0.0,10.8,81.4,1000.5,293.6,2.0,8.6,313.1,0.00,7.8,12.4
"20/04/01","24:00",0.0,10.3,83.2,1002.2,284.2,1.2,6.4,245.9,0.00,7.6,12.2
"20/04/02","01:00",0.0,10.0,88.4,1002.9,311.6,3.2,6.2,303.5,0.00,8.2,12.1
"20/04/02","02:00",0.0,10.2,84.5,1003.1,295.0,3.7,9.4,323.1,0.00,7.7,12.1
"20/04/02","03:00",0.0,10.1,83.6,1004.1,294.2,1.7,5.9,333.0,0.00,7.5,11.8
"20/04/02","04:00",0.0,9.9,84.6,1004.3,317.8,3.6,7.1,335.3,0.00,7.5,11.7
"20/04/02","05:00",0.0,9.8,80.4,1005.0,293.3,2.3,9.0,339.7,0.00,6.6,11.6
"20/04/02","06:00",0.0,9.7,77.6,1005.7,318.7,2.6,7.5,350.3,0.00,6.0,11.5
"20/04/02","07:00",0.0,9.5,81.2,1006.4,312.9,4.4,8.9,337.9,0.00,6.5,11.4
"20/04/02","08:00",0.0,10.5,82.0,1007.4,308.8,4.5,9.3,326.5,0.23,7.6,11.3
"20/04/02","09:00",0.0,11.6,77.9,1008.6,324.6,6.2,10.0,336.0,1.07,7.9,11.7
"20/04/02","10:00",0.2,12.2,77.3,1009.3,327.5,5.7,13.4,332.4,1.99,8.4,12.0
"20/04/02","11:00",0.0,11.6,73.6,1010.4,357.4,3.1,10.1,324.0,2.15,7.1,12.7
"20/04/02","12:00",0.4,10.6,78.2,1011.2,311.7,2.8,8.7,351.9,1.98,7.0,13.2
"20/04/02","13:00",0.2,10.4,84.2,1011.9,290.8,3.5,7.3,326.5,1.77,7.9,13.5
"20/04/02","14:00",0.0,11.4,74.6,1012.8,335.7,4.5,11.2,338.0,2.57,7.1,13.9
"20/04/02","15:00",0.0,13.7,63.9,1012.8,303.1,3.4,9.8,342.5,2.58,7.0,14.2
"20/04/02","16:00",0.0,12.2,59.5,1013.5,329.0,4.5,9.0,306.0,1.11,4.6,14.0
"20/04/02","17:00",0.0,12.3,58.5,1013.5,340.1,3.6,6.6,343.7,0.95,4.4,14.0
"20/04/02","18:00",0.0,12.4,60.8,1014.0,326.9,2.8,7.1,319.2,0.73,5.1,13.9
"20/04/02","19:00",0.0,10.9,60.5,1014.2,329.4,3.4,6.7,334.1,0.08,3.6,13.5
"20/04/02","20:00",0.0,8.2,70.4,1014.2,315.3,1.6,5.2,325.7,0.00,3.2,13.0
"20/04/02","21:00",0.0,6.7,79.6,1015.2,319.5,1.6,3.5,335.8,0.00,3.5,12.3
"20/04/02","22:00",0.0,5.7,85.9,1015.6,294.0,1.8,2.5,322.6,0.00,3.6,11.9
"20/04/02","23:00",0.0,5.0,89.1,1015.4,292.4,1.8,3.3,323.0,0.00,3.4,11.4
"20/04/02","24:00",0.0,4.6,90.7,1015.2,320.6,2.3,4.2,327.9,0.00,3.3,11.2
"20/04/03","01:00",0.0,4.5,91.2,1015.4,292.2,2.6,4.2,320.1,0.00,3.2,10.8
"20/04/03","02:00",0.0,3.7,91.6,1015.9,300.9,1.2,4.0,313.6,0.00,2.5,10.7
"20/04/03","03:00",0.0,2.7,92.7,1015.6,300.0,1.5,2.9,323.3,0.00,1.7,10.1
"20/04/03","04:00",0.0,2.6,93.7,1015.9,281.6,1.7,2.7,322.1,0.00,1.7,9.8
"20/04/03","05:00",0.0,1.8,94.6,1015.9,301.7,1.5,3.2,324.1,0.00,1.1,9.4
"20/04/03","06:00",0.0,2.0,95.3,1016.4,307.7,2.2,3.1,323.6,0.00,1.4,9.1
"20/04/03","07:00",0.2,2.8,95.9,1016.4,305.1,1.8,3.4,318.6,0.00,2.3,9.2
"20/04/03","08:00",0.0,5.6,95.9,1017.1,301.3,1.2,2.5,326.1,0.28,5.0,9.3
"20/04/03","09:00",0.0,7.9,95.1,1018.0,287.5,0.6,2.0,323.4,0.73,7.2,9.7
"20/04/03","10:00",0.0,10.3,86.8,1019.0,221.0,0.8,1.8,333.1,1.48,8.2,10.7
"20/04/03","11:00",0.0,13.1,61.8,1018.5,218.7,1.2,2.6,124.9,2.33,6.0,11.8
"20/04/03","12:00",0.0,15.2,58.0,1017.1,200.9,2.0,3.5,126.9,3.07,7.0,12.8
"20/04/03","13:00",0.0,16.2,49.5,1016.1,177.6,1.7,4.5,128.4,2.89,5.7,13.9
"20/04/03","14:00",0.0,16.9,40.2,1015.4,198.3,1.5,4.5,190.6,2.59,3.3,14.7
"20/04/03","15:00",0.0,17.5,34.7,1014.2,163.7,1.8,4.3,126.9,1.96,1.8,15.0
"20/04/03","16:00",0.0,17.6,29.8,1013.5,126.4,1.1,4.2,193.0,1.41,-0.2,15.3
"20/04/03","17:00",0.0,17.1,30.1,1013.3,190.6,1.8,4.7,188.9,1.04,-0.5,15.0
"20/04/03","18:00",0.0,16.8,32.1,1012.8,212.4,1.1,3.9,198.9,0.53,0.1,14.7
"20/04/03","19:00",0.0,13.3,53.9,1013.0,306.5,1.6,2.7,334.1,0.08,4.2,14.3
"20/04/03","20:00",0.0,11.3,60.8,1013.8,297.7,1.5,4.0,331.8,0.00,4.1,13.6
"20/04/03","21:00",0.0,9.8,66.0,1014.5,287.7,2.0,3.3,318.5,0.00,3.8,13.2
"20/04/03","22:00",0.0,8.7,66.8,1014.2,335.3,1.3,3.4,318.9,0.00,2.9,12.7
"20/04/03","23:00",0.0,7.5,71.5,1014.2,321.0,1.3,3.5,299.9,0.00,2.7,12.1
"20/04/03","24:00",0.0,6.5,74.2,1013.5,300.1,1.7,2.1,338.0,0.00,2.3,11.7
"20/04/04","01:00",0.0,6.1,78.0,1013.0,286.3,1.7,2.8,316.1,0.00,2.6,11.3
"20/04/04","02:00",0.0,5.3,80.7,1012.6,320.9,1.6,2.7,332.6,0.00,2.3,11.1
"20/04/04","03:00",0.0,4.7,84.0,1012.1,296.7,1.4,2.4,329.2,0.00,2.3,10.7
"20/04/04","04:00",0.0,4.8,86.3,1011.9,305.9,1.3,2.2,317.2,0.00,2.7,10.4
"20/04/04","05:00",0.0,5.8,87.4,1012.1,299.1,1.0,2.6,319.3,0.00,3.9,10.3
"20/04/04","06:00",0.0,5.7,87.9,1012.1,306.1,1.2,2.2,322.5,0.00,3.9,10.4
"20/04/04","07:00",0.0,6.7,88.8,1012.3,310.1,1.6,2.4,319.3,0.00,5.0,10.3
"20/04/04","08:00",0.0,8.9,88.6,1013.0,297.4,1.5,2.2,323.7,0.20,7.2,10.4
"20/04/04","09:00",0.0,12.8,79.9,1013.0,195.6,0.6,2.7,322.4,0.96,9.5,11.2
"20/04/04","10:00",0.0,15.8,58.7,1012.6,142.0,1.0,2.6,123.5,2.07,7.8,12.0
"20/04/04","11:00",0.0,17.0,58.5,1011.2,135.0,1.3,3.1,160.7,2.16,8.9,13.2
"20/04/04","12:00",0.0,20.0,55.5,1009.5,192.2,2.1,5.0,202.6,2.92,10.9,14.3
"20/04/04","13:00",0.0,19.5,53.1,1008.8,298.2,2.0,4.5,326.8,1.48,9.7,15.1
"20/04/04","14:00",0.0,21.0,43.0,1007.6,225.1,2.5,6.0,271.1,2.98,8.0,15.7
"20/04/04","15:00",0.0,21.2,33.1,1006.7,326.3,3.7,7.8,330.6,2.63,4.4,16.2
"20/04/04","16:00",0.0,21.3,28.6,1006.4,289.1,2.6,9.5,336.6,2.52,2.4,16.8
"20/04/04","17:00",0.0,20.5,28.1,1006.0,274.8,2.2,7.5,233.1,1.64,1.5,16.7
"20/04/04","18:00",0.0,19.5,28.5,1006.7,303.4,2.5,6.2,230.0,0.66,0.8,16.2
"20/04/04","19:00",0.0,16.2,53.8,1006.9,345.1,3.2,7.5,342.2,0.04,6.9,15.3
"20/04/04","20:00",0.0,13.0,69.4,1008.3,340.0,5.5,12.5,317.5,0.00,7.6,14.7
"20/04/04","21:00",0.0,11.4,76.1,1009.3,340.4,3.1,12.0,319.7,0.00,7.4,14.3
"20/04/04","22:00",0.0,10.6,76.4,1010.7,343.1,3.1,7.8,319.3,0.00,6.7,13.6
"20/04/04","23:00",0.0,9.8,76.4,1010.2,338.1,2.8,9.6,337.5,0.00,5.9,13.2
"20/04/04","24:00",0.0,9.3,78.0,1010.0,332.7,3.9,7.8,334.9,0.00,5.7,12.7
"20/04/05","01:00",0.0,8.9,78.4,1010.2,332.2,3.5,9.1,337.1,0.00,5.4,12.7
"20/04/05","02:00",0.0,8.6,78.4,1010.2,331.7,3.7,7.2,321.7,0.00,5.1,12.2
"20/04/05","03:00",0.0,8.3,77.5,1010.4,321.4,4.6,9.7,335.9,0.00,4.6,11.9
"20/04/05","04:00",0.0,7.7,75.2,1010.0,331.2,3.2,8.6,325.0,0.00,3.6,11.9
"20/04/05","05:00",0.0,7.5,74.9,1009.7,330.4,3.6,7.9,325.3,0.00,3.4,11.6
"20/04/05","06:00",0.0,7.1,75.5,1010.4,317.9,4.2,9.4,333.7,0.00,3.1,11.5
"20/04/05","07:00",0.0,6.6,73.8,1011.4,338.4,2.5,8.6,339.7,0.00,2.3,11.3
"20/04/05","08:00",0.0,8.0,70.2,1012.1,309.8,2.1,5.9,330.6,0.21,2.9,11.2
"20/04/05","09:00",0.0,9.0,62.5,1012.1,349.3,3.4,8.3,316.7,1.32,2.3,11.7
"20/04/05","10:00",0.0,9.8,58.8,1012.3,301.5,3.5,10.0,343.9,1.87,2.2,12.1
"20/04/05","11:00",0.0,10.8,50.1,1012.6,4.8,4.2,9.1,342.3,2.83,0.9,12.8
"20/04/05","12:00",0.0,12.2,44.4,1012.6,337.7,4.6,13.3,310.4,3.67,0.5,13.7
"20/04/05","13:00",0.0,11.9,43.9,1012.1,346.2,5.0,9.4,334.0,2.68,0.1,14.2
"20/04/05","14:00",0.0,12.2,39.6,1011.6,347.9,4.2,9.7,327.4,3.53,-1.1,14.4
"20/04/05","15:00",0.0,12.2,40.8,1011.2,347.6,3.6,10.4,337.7,3.09,-0.7,15.1
"20/04/05","16:00",0.0,12.1,41.9,1011.6,334.2,3.2,11.3,340.6,2.20,-0.4,15.2
"20/04/05","17:00",0.0,10.3,47.3,1011.6,345.3,3.7,10.1,332.0,0.49,-0.4,14.6
"20/04/05","18:00",0.0,9.6,55.0,1011.9,339.3,2.7,6.6,332.6,0.15,1.0,13.8
"20/04/05","19:00",0.0,9.0,56.8,1012.1,342.6,2.1,5.4,314.5,0.02,0.9,13.4
"20/04/05","20:00",0.0,8.2,59.1,1012.6,318.4,2.0,4.9,324.4,0.00,0.7,13.0
"20/04/05","21:00",0.0,7.5,58.4,1013.3,329.5,3.4,6.2,332.9,0.00,-0.1,12.5
"20/04/05","22:00",0.0,5.7,68.8,1013.3,323.7,1.7,4.4,313.9,0.00,0.5,12.2
"20/04/05","23:00",0.0,5.8,72.5,1013.5,330.0,2.3,3.2,338.3,0.00,1.3,11.4
"20/04/05","24:00",0.0,5.1,73.7,1013.5,328.9,1.8,3.4,337.5,0.00,0.8,11.3
"20/04/06","01:00",0.0,4.5,77.7,1013.8,315.3,2.0,3.6,321.9,0.00,1.0,11.0
"20/04/06","02:00",0.0,4.3,81.4,1013.3,321.4,1.7,2.7,324.3,0.00,1.4,10.7
"20/04/06","03:00",0.0,4.4,83.8,1012.8,323.7,2.1,2.9,313.6,0.00,1.9,10.6
"20/04/06","04:00",0.0,3.2,86.0,1012.1,298.8,1.3,2.8,327.4,0.00,1.1,10.3
"20/04/06","05:00",0.0,2.8,88.6,1012.1,305.5,1.7,4.0,334.3,0.00,1.1,9.8
"20/04/06","06:00",0.0,3.6,90.4,1012.6,285.5,0.7,3.2,340.2,0.00,2.2,9.8
"20/04/06","07:00",0.0,5.0,91.4,1013.8,322.8,0.3,2.6,335.4,0.01,3.8,9.8
"20/04/06","08:00",0.0,8.1,84.7,1014.9,97.3,0.2,2.4,336.5,0.28,5.7,10.2
"20/04/06","09:00",0.0,10.8,67.0,1015.6,151.6,1.1,2.9,123.5,1.28,5.0,10.8
"20/04/06","10:00",0.0,12.5,50.7,1015.2,325.9,2.5,6.4,122.1,2.42,2.6,11.8
"20/04/06","11:00",0.0,13.3,46.9,1015.2,335.0,3.5,8.1,343.4,2.57,2.2,12.7
"20/04/06","12:00",0.0,14.9,44.4,1014.2,347.2,2.2,8.6,359.2,3.58,2.9,13.9
"20/04/06","13:00",0.0,15.1,40.7,1013.8,344.0,3.2,9.7,330.6,3.02,1.9,14.9
"20/04/06","14:00",0.0,15.5,36.3,1013.0,8.4,2.6,8.3,334.3,3.69,0.7,15.7
"20/04/06","15:00",0.0,15.6,33.1,1012.6,12.7,2.5,8.1,338.8,3.08,-0.5,16.1
"20/04/06","16:00",0.0,15.8,37.2,1012.3,342.3,3.6,7.5,345.4,2.44,1.3,16.2
"20/04/06","17:00",0.0,14.2,37.4,1012.3,342.0,3.9,9.5,325.7,1.69,-0.1,15.8
"20/04/06","18:00",0.0,13.3,36.3,1012.6,345.8,2.6,8.1,333.9,0.71,-1.3,15.2
"20/04/06","19:00",0.0,10.7,44.1,1012.3,336.7,2.2,5.8,343.2,0.07,-1.0,14.3
"20/04/06","20:00",0.0,8.4,55.1,1012.3,317.8,2.3,4.7,342.9,0.00,0.0,13.7
"20/04/06","21:00",0.0,6.2,66.8,1013.3,315.9,2.2,2.7,319.3,0.00,0.5,12.9
"20/04/06","22:00",0.0,5.7,72.3,1013.0,287.9,2.0,2.8,318.5,0.00,1.1,12.1
"20/04/06","23:00",0.0,5.3,74.8,1012.8,255.5,1.0,2.6,330.5,0.00,1.2,11.8
"20/04/06","24:00",0.0,5.0,76.9,1012.1,316.9,2.1,2.7,307.8,0.00,1.3,11.2
"20/04/07","01:00",0.0,4.6,78.5,1011.9,315.5,1.6,2.6,329.7,0.00,1.2,10.8
"20/04/07","02:00",0.0,5.1,80.4,1011.9,324.6,3.7,4.7,333.8,0.00,2.0,10.8
"20/04/07","03:00",0.0,4.5,80.1,1011.2,290.5,2.0,4.5,338.1,0.00,1.4,10.4
"20/04/07","04:00",0.0,3.4,82.7,1010.4,312.4,2.2,3.3,324.1,0.00,0.8,9.9
"20/04/07","05:00",0.0,3.5,83.6,1010.7,300.7,1.8,4.8,338.7,0.00,1.0,10.1
"20/04/07","06:00",0.0,2.8,84.2,1009.7,301.0,2.0,3.3,323.2,0.00,0.4,9.7
"20/04/07","07:00",0.0,3.2,85.6,1009.7,315.8,1.8,3.1,325.2,0.01,1.1,9.5
"20/04/07","08:00",0.0,6.7,78.2,1010.7,332.4,1.0,3.3,326.9,0.40,3.2,9.7
"20/04/07","09:00",0.0,10.8,63.2,1011.2,306.7,1.1,2.6,330.4,1.04,4.1,10.5
"20/04/07","10:00",0.0,13.1,49.4,1011.4,181.4,1.3,3.5,125.0,2.26,2.8,11.7
"20/04/07","11:00",0.0,15.0,43.3,1010.7,188.3,1.7,3.6,128.5,3.00,2.7,13.2
"20/04/07","12:00",0.0,16.7,39.4,1010.0,174.9,1.6,4.3,209.3,3.14,2.9,14.3
"20/04/07","13:00",0.0,18.4,36.3,1008.6,127.7,2.0,4.4,227.6,2.87,3.2,15.2
"20/04/07","14:00",0.0,18.8,28.4,1007.6,230.7,2.1,5.8,215.9,3.08,0.2,16.1
"20/04/07","15:00",0.0,19.5,33.1,1006.9,196.5,2.2,6.2,213.3,3.25,2.9,16.8
"20/04/07","16:00",0.0,19.4,27.8,1006.4,185.9,2.3,6.6,120.5,2.52,0.4,16.9
"20/04/07","17:00",0.0,18.5,31.4,1006.4,181.0,2.7,6.5,202.5,1.66,1.3,16.7
"20/04/07","18:00",0.0,17.4,33.7,1006.7,188.3,2.3,6.5,217.2,0.71,1.3,15.9
"20/04/07","19:00",0.0,15.8,38.6,1007.4,306.8,1.2,3.5,197.0,0.07,1.8,15.3
"20/04/07","20:00",0.0,11.5,55.2,1007.6,286.8,1.3,3.5,323.3,0.00,2.9,14.3
"20/04/07","21:00",0.0,10.2,60.9,1008.6,320.2,1.3,3.2,306.1,0.00,3.0,13.7
"20/04/07","22:00",0.0,9.3,63.9,1008.8,294.4,2.0,2.8,315.2,0.00,2.9,13.1
"20/04/07","23:00",0.0,8.1,68.0,1008.8,296.2,1.7,2.8,310.7,0.00,2.6,12.4
"20/04/07","24:00",0.0,7.4,70.4,1008.8,316.4,1.7,3.6,340.5,0.00,2.4,12.0
"20/04/08","01:00",0.0,7.0,71.4,1008.6,338.9,1.3,5.6,322.3,0.00,2.2,11.6
"20/04/08","02:00",0.0,6.8,73.6,1008.3,322.8,2.2,4.3,306.2,0.00,2.5,11.3
"20/04/08","03:00",0.0,6.4,73.8,1008.3,310.1,1.6,5.1,333.4,0.00,2.1,11.1
"20/04/08","04:00",0.0,5.2,77.3,1007.8,307.8,1.5,2.5,337.0,0.00,1.6,10.7
"20/04/08","05:00",0.0,4.4,81.0,1007.6,0.0,0.0,1.6,323.2,0.00,1.5,10.2
"20/04/08","06:00",0.0,3.7,84.4,1007.1,299.1,1.1,2.2,319.8,0.00,1.4,10.2
"20/04/08","07:00",0.0,4.5,87.1,1007.6,310.7,1.5,2.4,317.0,0.01,2.6,9.8
"20/04/08","08:00",0.0,8.3,85.4,1009.0,289.9,0.2,2.6,314.0,0.33,6.0,10.1
"20/04/08","09:00",0.0,11.5,67.3,1009.5,312.3,1.5,3.1,324.2,1.03,5.7,10.9
"20/04/08","10:00",0.0,14.2,56.3,1009.0,185.9,1.3,2.8,202.5,1.89,5.7,12.0
"20/04/08","11:00",0.0,16.1,53.3,1008.6,143.3,1.1,3.3,130.5,2.70,6.6,13.2
"20/04/08","12:00",0.0,18.6,49.9,1007.6,160.2,2.1,3.9,114.2,3.18,8.0,14.8
"20/04/08","13:00",0.0,20.1,41.7,1006.4,208.0,2.6,7.7,230.5,3.40,6.7,15.9
"20/04/08","14:00",0.0,21.2,35.3,1006.0,278.4,2.2,7.1,228.9,3.18,5.3,17.0
"20/04/08","15:00",0.0,20.9,33.5,1006.0,294.1,2.8,8.3,313.5,3.05,4.3,17.3
"20/04/08","16:00",0.0,20.9,33.8,1005.5,294.1,3.0,8.3,338.7,2.34,4.4,17.4
"20/04/08","17:00",0.0,20.4,35.0,1005.7,255.4,3.1,7.8,231.4,1.48,4.5,17.1
"20/04/08","18:00",0.0,19.2,40.0,1006.7,271.8,1.7,6.4,354.0,0.57,5.3,16.7
"20/04/08","19:00",0.0,16.0,58.0,1007.8,345.2,2.3,6.5,344.2,0.00,7.8,16.0
"20/04/08","20:00",0.0,14.5,67.5,1009.0,340.4,3.4,9.0,332.9,0.00,8.6,15.5
"20/04/08","21:00",0.0,13.4,72.8,1010.7,318.0,1.8,8.2,332.7,0.00,8.7,14.9
"20/04/08","22:00",0.0,13.0,72.6,1012.1,337.7,2.2,6.6,327.4,0.00,8.2,14.5
"20/04/08","23:00",0.0,12.2,68.6,1012.6,250.1,2.1,4.4,351.7,0.00,6.6,14.0
"20/04/08","24:00",0.0,11.4,65.2,1013.5,294.7,2.3,7.3,334.0,0.00,5.1,13.6
"20/04/09","01:00",0.0,10.5,65.4,1013.5,325.6,2.6,6.7,342.8,0.00,4.3,13.2
"20/04/09","02:00",0.0,9.9,65.8,1013.8,333.0,1.8,5.8,333.9,0.00,3.8,12.8
"20/04/09","03:00",0.0,7.2,74.5,1013.5,314.7,1.8,3.2,342.9,0.00,3.0,12.2
"20/04/09","04:00",0.0,7.7,81.0,1013.0,339.3,1.7,5.2,338.8,0.00,4.7,11.8
"20/04/09","05:00",0.0,8.2,77.4,1013.3,337.2,2.1,3.9,345.1,0.00,4.5,11.6
"20/04/09","06:00",0.0,5.2,78.8,1013.5,299.5,1.2,7.4,335.8,0.00,1.9,11.2
"20/04/09","07:00",0.0,5.9,85.3,1013.8,312.5,2.3,3.4,328.9,0.01,3.7,10.9
"20/04/09","08:00",0.0,9.4,80.1,1014.9,310.0,3.0,4.8,327.2,0.36,6.2,11.3
"20/04/09","09:00",0.0,12.4,64.0,1014.9,217.6,0.8,4.8,337.5,1.24,5.8,11.9
"20/04/09","10:00",0.0,13.7,56.2,1014.7,232.6,1.0,3.5,341.3,2.20,5.2,13.0
"20/04/09","11:00",0.0,14.6,54.1,1014.0,220.6,1.8,4.2,231.0,2.95,5.5,14.2
"20/04/09","12:00",0.0,16.2,37.0,1013.0,247.4,2.1,5.7,313.7,3.44,1.5,15.4
"20/04/09","13:00",0.0,17.1,37.6,1012.3,293.8,2.5,7.7,329.4,3.66,2.6,16.3
"20/04/09","14:00",0.0,18.0,38.0,1011.9,290.3,1.8,5.8,347.7,2.96,3.5,16.9
"20/04/09","15:00",0.0,18.4,37.4,1010.9,305.5,2.7,6.7,321.3,2.91,3.7,17.5
"20/04/09","16:00",0.0,17.3,36.1,1010.2,242.6,1.7,5.2,331.3,2.33,2.2,17.7
"20/04/09","17:00",0.0,17.3,41.4,1010.7,339.4,3.9,7.0,329.0,1.19,4.1,17.2
"20/04/09","18:00",0.0,14.0,44.4,1011.9,340.7,5.4,11.3,343.5,0.74,2.1,16.5
"20/04/09","19:00",0.0,12.1,43.8,1013.0,333.9,4.2,10.0,344.9,0.07,0.2,15.5
"20/04/09","20:00",0.0,11.0,44.4,1013.5,339.5,3.1,8.1,342.9,0.00,-0.6,14.7
"20/04/09","21:00",0.0,10.2,47.7,1014.5,329.9,2.3,7.9,338.8,0.00,-0.4,13.9
"20/04/09","22:00",0.0,10.4,46.1,1014.9,285.7,1.2,5.6,311.1,0.00,-0.6,13.2
"20/04/09","23:00",0.0,9.8,52.0,1015.2,277.1,1.3,7.7,320.4,0.00,0.5,13.2
"20/04/09","24:00",0.0,9.6,58.8,1015.4,297.1,2.0,4.9,349.6,0.00,2.0,12.9
"20/04/10","01:00",0.0,8.1,65.3,1014.9,300.0,0.8,4.0,307.7,0.00,2.0,12.4
"20/04/10","02:00",0.0,6.5,72.5,1014.9,327.6,1.6,3.2,325.9,0.00,2.0,12.1
"20/04/10","03:00",0.0,5.3,78.4,1014.2,82.5,0.3,1.9,349.1,0.00,1.9,11.7
"20/04/10","04:00",0.0,4.7,83.9,1014.5,328.7,2.3,2.8,322.7,0.00,2.3,11.2
"20/04/10","05:00",0.0,4.5,86.9,1014.5,328.9,1.7,3.1,353.9,0.00,2.6,11.2
"20/04/10","06:00",0.0,4.3,88.9,1014.9,320.2,2.1,2.7,339.3,0.00,2.7,10.7
"20/04/10","07:00",0.0,5.7,89.7,1015.9,320.0,1.3,2.6,299.1,0.00,4.2,10.5
"20/04/10","08:00",0.0,8.2,86.5,1017.1,331.7,1.7,7.7,331.2,0.18,6.1,10.7
"20/04/10","09:00",0.0,10.4,65.0,1017.8,326.8,2.6,6.5,333.4,1.18,4.2,11.6
"20/04/10","10:00",0.2,11.3,61.9,1017.5,358.8,3.1,7.8,352.2,1.90,4.3,12.0
"20/04/10","11:00",0.0,12.6,55.9,1017.5,324.4,2.6,9.5,330.7,2.82,4.1,12.9
"20/04/10","12:00",0.0,12.5,55.6,1017.5,339.3,3.9,9.4,343.3,3.28,3.9,14.4
"20/04/10","13:00",0.0,12.9,48.2,1016.8,357.6,3.2,10.9,356.3,3.37,2.3,15.1
"20/04/10","14:00",0.0,12.7,47.7,1016.4,350.0,3.7,10.5,329.7,2.71,1.9,15.5
"20/04/10","15:00",0.0,13.1,46.4,1015.9,333.4,3.9,8.6,343.9,2.09,1.9,15.5
"20/04/10","16:00",0.0,12.5,47.5,1016.1,345.0,4.0,10.0,334.3,1.71,1.7,15.0
"20/04/10","17:00",0.0,12.0,45.1,1016.1,352.0,3.7,11.0,335.9,1.38,0.5,14.7
"20/04/10","18:00",0.0,10.2,49.2,1016.8,342.5,4.1,10.1,341.4,0.64,0.1,14.4
"20/04/10","19:00",0.0,9.5,53.7,1017.5,331.7,2.2,9.4,340.6,0.08,0.6,13.7
"20/04/10","20:00",0.0,7.9,64.1,1017.1,330.3,2.2,6.8,348.3,0.00,1.6,13.2
"20/04/10","21:00",0.0,6.2,70.1,1017.8,315.5,1.5,3.7,325.5,0.00,1.2,12.4
"20/04/10","22:00",0.0,6.6,72.8,1017.8,314.5,2.3,4.3,316.5,0.00,2.1,12.2
"20/04/10","23:00",0.0,5.9,75.2,1017.3,325.9,1.2,4.7,319.8,0.00,1.9,11.7
"20/04/10","24:00",0.0,5.3,81.5,1017.3,333.2,2.0,3.3,335.9,0.00,2.4,11.3
"20/04/11","01:00",0.0,5.8,82.4,1016.8,326.6,2.7,5.4,320.7,0.00,3.1,11.2
"20/04/11","02:00",0.0,5.9,82.0,1016.6,329.2,3.1,5.6,342.0,0.00,3.1,11.0
"20/04/11","03:00",0.0,5.9,83.5,1016.4,328.1,2.3,4.8,338.0,0.00,3.4,10.6
"20/04/11","04:00",0.0,4.8,86.2,1016.1,334.3,2.2,3.4,343.8,0.00,2.7,10.5
"20/04/11","05:00",0.0,4.3,89.1,1015.2,322.3,2.0,3.6,325.8,0.00,2.7,10.2
"20/04/11","06:00",0.0,3.4,90.7,1015.4,293.6,0.8,2.6,323.2,0.00,2.1,10.0
"20/04/11","07:00",0.0,4.0,92.2,1015.2,331.8,1.5,3.1,341.9,0.00,2.9,9.8
"20/04/11","08:00",0.0,6.4,92.7,1016.1,292.9,0.6,3.3,313.2,0.24,5.3,10.1
"20/04/11","09:00",0.0,10.0,83.9,1017.8,309.6,2.1,3.3,313.9,1.30,7.4,11.0
"20/04/11","10:00",0.0,10.8,67.5,1016.8,310.2,1.1,3.7,143.0,1.70,5.1,12.1
"20/04/11","11:00",0.0,12.3,65.6,1016.6,244.0,2.0,3.6,332.6,1.25,6.1,12.3
"20/04/11","12:00",0.0,14.1,56.5,1014.9,337.3,2.6,6.7,228.9,3.30,5.6,13.8
"20/04/11","13:00",0.0,14.8,57.8,1014.2,323.2,2.6,6.5,356.9,2.81,6.6,15.0
"20/04/11","14:00",0.0,14.8,44.5,1013.5,358.0,2.0,6.2,342.3,2.24,2.9,15.3
"20/04/11","15:00",0.0,14.9,47.1,1012.8,347.5,2.5,4.4,342.8,1.41,3.8,15.3
"20/04/11","16:00",0.0,14.9,48.9,1011.9,337.6,2.0,7.0,338.8,1.33,4.3,15.2
"20/04/11","17:00",0.0,14.3,49.4,1011.9,333.8,3.4,6.5,330.0,0.87,3.9,14.9
"20/04/11","18:00",0.0,13.7,51.8,1012.3,338.3,1.6,5.6,337.1,0.42,4.0,14.6
"20/04/11","19:00",0.0,11.8,60.1,1012.3,336.2,2.6,4.9,338.5,0.05,4.4,14.2
"20/04/11","20:00",0.0,10.5,61.7,1012.3,298.9,1.1,6.6,340.1,0.00,3.5,13.5
"20/04/11","21:00",0.0,9.9,64.1,1012.8,277.6,1.3,3.3,335.0,0.00,3.5,13.2
"20/04/11","22:00",0.0,8.5,69.3,1012.3,293.6,1.8,2.2,310.0,0.00,3.2,12.7
"20/04/11","23:00",0.0,8.6,73.2,1012.6,331.0,2.5,3.4,311.3,0.00,4.1,12.5
"20/04/11","24:00",0.0,8.9,70.6,1012.1,328.4,2.1,4.9,326.7,0.00,3.9,12.1
"20/04/12","01:00",0.0,8.7,70.5,1011.9,320.3,1.8,4.2,337.2,0.00,3.7,11.9
"20/04/12","02:00",0.0,8.4,72.8,1011.2,328.4,2.5,3.9,337.6,0.00,3.8,12.1
"20/04/12","03:00",0.0,7.7,75.2,1010.2,293.1,1.3,5.1,334.5,0.00,3.6,11.7
"20/04/12","04:00",0.0,7.8,76.6,1009.5,319.8,2.1,3.4,317.4,0.00,4.0,11.7
"20/04/12","05:00",0.0,7.7,77.0,1009.0,316.6,2.0,4.0,303.0,0.00,4.0,11.4
"20/04/12","06:00",0.0,7.9,77.5,1009.7,326.8,2.8,4.7,328.1,0.00,4.3,11.4
"20/04/12","07:00",0.0,8.0,80.4,1009.3,329.1,3.1,4.9,325.8,0.00,4.9,11.3
"20/04/12","08:00",0.0,8.8,80.5,1009.5,315.7,3.4,4.9,333.2,0.18,5.7,11.4
"20/04/12","09:00",0.0,10.3,78.0,1008.8,309.2,2.1,6.4,326.7,0.51,6.7,11.8
"20/04/12","10:00",0.0,11.0,69.1,1009.5,261.7,1.3,3.7,325.7,0.61,5.6,11.9
"20/04/12","11:00",0.4,10.3,81.4,1008.8,300.0,1.6,4.5,329.8,0.48,7.3,12.2
"20/04/12","12:00",0.4,11.1,82.1,1007.8,289.4,0.8,2.5,306.3,0.65,8.2,12.3
"20/04/12","13:00",0.6,10.3,82.4,1007.1,330.8,0.8,2.2,110.3,0.67,7.5,12.4
"20/04/12","14:00",0.8,10.0,83.3,1006.4,43.8,0.7,5.2,355.6,0.71,7.3,12.6
"20/04/12","15:00",2.0,9.2,85.2,1005.5,352.6,1.5,2.9,357.0,0.38,6.9,12.6
"20/04/12","16:00",2.0,8.7,87.1,1004.5,293.7,1.5,4.5,317.4,0.16,6.7,12.1
"20/04/12","17:00",2.2,8.3,90.3,1003.8,278.9,1.6,3.5,327.9,0.06,6.8,12.2
"20/04/12","18:00",3.4,8.2,92.1,1002.6,310.2,1.5,2.5,323.9,0.00,7.0,11.6
"20/04/12","19:00",2.4,8.1,93.2,1002.4,265.6,1.3,2.5,261.6,0.00,7.1,11.5
"20/04/12","20:00",1.8,8.0,94.2,1001.2,328.7,1.2,2.6,311.3,0.00,7.2,11.6
"20/04/12","21:00",0.8,8.2,94.9,999.6,283.5,1.1,3.4,260.3,0.00,7.5,11.3
"20/04/12","22:00",0.2,8.6,95.3,998.9,271.1,1.2,2.4,262.5,0.00,7.9,11.4
"20/04/12","23:00",1.2,8.8,95.7,996.5,284.4,1.6,2.7,265.3,0.00,8.2,11.4
"20/04/12","24:00",0.4,9.4,96.0,994.4,294.9,1.8,2.9,315.8,0.00,8.8,11.3
"20/04/13","01:00",0.0,9.9,96.2,993.0,290.7,1.3,2.9,302.2,0.00,9.4,11.5
"20/04/13","02:00",0.2,10.2,96.0,991.1,309.4,1.3,4.0,314.6,0.00,9.6,11.4
"20/04/13","03:00",0.0,9.6,95.4,990.1,302.4,2.5,5.2,333.1,0.00,8.9,11.6
"20/04/13","04:00",0.2,9.2,95.4,987.5,334.5,3.2,7.4,349.7,0.00,8.5,11.4
"20/04/13","05:00",3.6,9.0,95.3,988.9,321.9,2.7,9.3,346.2,0.00,8.3,11.2
"20/04/13","06:00",2.4,8.8,95.4,987.8,303.1,2.6,7.5,342.6,0.00,8.1,11.2
"20/04/13","07:00",4.0,9.4,95.7,986.3,281.3,2.0,5.1,351.7,0.00,8.8,10.9
"20/04/13","08:00",0.0,10.1,95.7,985.9,287.9,2.0,5.2,328.5,0.00,9.5,10.7
"20/04/13","09:00",0.0,11.6,95.3,985.9,298.0,1.7,4.1,336.9,0.20,10.9,11.3
"20/04/13","10:00",0.0,12.3,93.2,986.1,142.2,1.8,4.1,110.0,0.32,11.3,11.4
"20/04/13","11:00",0.4,11.1,93.9,987.0,157.1,2.1,5.4,219.5,0.33,10.2,11.7
"20/04/13","12:00",1.2,10.6,95.4,987.0,166.6,1.8,5.2,165.5,0.34,9.9,11.7
"20/04/13","13:00",0.2,10.8,95.8,987.5,189.3,1.6,5.5,197.4,0.38,10.2,11.9
"20/04/13","14:00",0.4,10.7,95.2,987.3,163.8,2.1,4.3,141.9,0.51,10.0,11.9
"20/04/13","15:00",1.4,10.4,95.1,987.5,164.2,1.8,4.0,168.1,0.35,9.7,11.9
"20/04/13","16:00",1.4,10.0,95.4,987.3,164.1,2.5,4.7,184.9,0.18,9.3,12.1
"20/04/13","17:00",1.0,9.9,96.1,987.8,176.5,1.6,4.4,158.4,0.16,9.3,11.8
"20/04/13","18:00",1.6,9.6,96.7,988.0,161.8,1.0,4.1,150.8,0.01,9.1,11.8
"20/04/13","19:00",0.2,9.6,96.9,988.9,259.0,0.5,1.8,116.8,0.00,9.2,11.7
"20/04/13","20:00",0.2,9.5,96.8,990.1,305.8,2.8,5.6,335.5,0.00,9.1,11.6
"20/04/13","21:00",0.0,9.6,94.9,992.0,339.0,1.5,9.6,329.7,0.00,8.9,11.5
"20/04/13","22:00",0.0,10.0,89.4,993.4,307.4,2.6,7.2,12.3,0.00,8.4,11.5
"20/04/13","23:00",0.2,9.9,87.4,994.1,310.4,2.7,5.1,319.6,0.00,7.9,11.3
"20/04/13","24:00",0.0,10.1,86.8,995.6,326.7,2.6,4.9,213.3,0.00,8.0,11.4
"20/04/14","01:00",0.8,9.2,88.6,997.2,317.5,2.1,7.9,323.3,0.00,7.5,11.3
"20/04/14","02:00",0.0,8.9,87.3,998.4,312.1,2.2,10.4,344.3,0.00,6.9,11.3
"20/04/14","03:00",0.2,8.5,84.9,998.9,299.6,1.7,7.1,326.0,0.00,6.1,10.9
"20/04/14","04:00",0.2,8.0,87.1,1000.0,171.1,1.0,4.8,322.1,0.00,6.0,10.9
"20/04/14","05:00",0.0,7.8,86.4,1001.7,0.0,0.0,2.5,295.5,0.00,5.7,10.7
"20/04/14","06:00",0.0,7.7,79.3,1003.8,312.2,3.5,8.2,336.8,0.00,4.4,10.3
"20/04/14","07:00",0.0,8.5,76.3,1004.8,324.7,5.5,8.8,316.4,0.01,4.6,10.5
"20/04/14","08:00",0.0,9.2,75.6,1005.0,330.8,7.0,13.4,328.2,0.47,5.2,10.5
"20/04/14","09:00",0.0,10.8,67.9,1006.4,331.3,5.7,11.9,338.3,1.40,5.2,10.8